Flag for Germany Weather past 2 weeks in Leverkusen, North Rhine-Westphalia, Germany

Now
37 °F

Sprinkles. Partly cloudy.


Feels Like: 31 °F
Forecast: 35 / 44 °F
Wind: 9 mph from Southwest

Location: Koeln / Bonn

Current Time: Mar 3, 2015 at 11:39:04 PM

Latest Report: Mar 3, 2015 at 11:20 PM


Visibility: N/A

Pressure: 30.09 "Hg

Humidity: 87%

Dew point: 34 °F

Location of LeverkusenLocation

Historic Weather in Leverkusen — Graph

°F

Leverkusen temperature yesterday

Maximum temperature yesterday: 48 °F (at 1:50 PM)
Minimum temperature yesterday: 36 °F (at 6:50 PM)
Average temperature yesterday: 42 °F

Past Weeks' High & Low Weather Summary

 TemperatureHumidityPressure
High54 °F (Mar 1, 1:20 PM)100% (Feb 17, 10:50 AM)30.77 "Hg (Feb 17, 10:50 AM)
Low28 °F (Feb 28, 4:20 AM)40% (Feb 28, 3:50 PM)29.39 "Hg (Feb 21, 4:20 AM)
Average40 °F79%29.96 "Hg
* Reported Feb 16 10:20 PM — Mar 3 10:20 PM, Leverkusen, Weather by CustomWeather, © 2015

Note: Actual official high and low records may vary slightly from our data, if they occured in-between our weather recording intervals... More about our weather records

Advertising

Leverkusen weather history for previous 24 hours

 ConditionsComfort  
Time TempWeatherWind HumidityBarometerVisibility
10:20 PM
Tue, Mar 3
39 °FPartly cloudy.13 mph81%30.09 "HgN/A
9:50 PM39 °FSprinkles. Partly cloudy.15 mph81%30.07 "HgN/A
9:20 PM39 °FScattered showers. Passing clouds.13 mph87%30.07 "HgN/A
8:50 PM39 °FScattered showers. Passing clouds.13 mph87%30.04 "HgN/A
8:20 PM41 °FSprinkles. Partly cloudy.14 mph87%30.04 "HgN/A
7:50 PM39 °FPassing clouds.8 mph87%30.04 "HgN/A
7:20 PM39 °FSprinkles. Passing clouds.6 mph93%30.04 "HgN/A
6:50 PM39 °FPassing clouds.6 mph93%30.01 "HgN/A
6:20 PM39 °FSprinkles. Passing clouds.7 mph93%30.01 "HgN/A
5:50 PM43 °FRain showers. Broken clouds.22 mph81%30.01 "HgN/A
5:20 PM45 °FScattered showers. Partly sunny.12 mph76%29.98 "HgN/A
4:50 PM43 °FSprinkles. Partly sunny.14 mph81%30.01 "HgN/A
4:20 PM45 °FLight rain. Partly sunny.23 mph71%30.01 "HgN/A
3:50 PM48 °FLight rain. Partly sunny.13 mph54%29.98 "HgN/A
3:20 PM48 °FPartly sunny.22 mph50%29.98 "HgN/A
2:50 PM50 °FPartly sunny.17 mph47%29.98 "HgN/A
2:20 PM48 °FBroken clouds.17 mph50%30.01 "HgN/A
1:50 PM48 °FBroken clouds.16 mph50%30.01 "HgN/A
1:20 PM48 °FBroken clouds.18 mph50%30.04 "HgN/A
12:50 PM46 °FBroken clouds.15 mph57%30.04 "HgN/A
12:20 PM45 °FBroken clouds.12 mph61%30.07 "HgN/A
11:50 AM45 °FBroken clouds.12 mph61%30.07 "HgN/A
11:20 AM45 °FBroken clouds.13 mph61%30.07 "HgN/A
10:50 AM43 °FBroken clouds.13 mph66%30.09 "HgN/A
10:20 AM45 °FSunny.12 mph61%30.09 "Hg10 mi
9:50 AM41 °FSunny.9 mph70%30.09 "Hg10 mi
9:20 AM39 °FBroken clouds.8 mph75%30.09 "HgN/A
8:50 AM39 °FBroken clouds.8 mph70%30.09 "HgN/A
8:20 AM36 °FScattered clouds.8 mph81%30.09 "HgN/A
7:50 AM34 °FSunny.9 mph87%30.09 "Hg10 mi
7:20 AM34 °FSunny.9 mph87%30.09 "Hg10 mi
6:50 AM34 °FPassing clouds.9 mph81%30.09 "HgN/A
6:20 AM36 °FPassing clouds.8 mph81%30.09 "HgN/A
5:50 AM36 °FPassing clouds.8 mph81%30.09 "HgN/A
5:20 AM34 °FPassing clouds.8 mph81%30.09 "HgN/A
4:50 AM36 °FPassing clouds.7 mph81%30.07 "HgN/A
4:20 AM36 °FPassing clouds.8 mph81%30.07 "HgN/A
3:50 AM36 °FClear.7 mph81%30.07 "Hg10 mi
3:20 AM36 °FPassing clouds.8 mph81%30.07 "HgN/A
2:50 AM36 °FClear.8 mph81%30.07 "Hg10 mi
2:20 AM37 °FClear.8 mph75%30.07 "Hg10 mi
1:50 AM37 °FClear.13 mph75%30.07 "Hg10 mi
1:20 AM37 °FClear.13 mph75%30.04 "Hg10 mi
12:50 AM37 °FClear.13 mph75%30.04 "Hg10 mi
12:20 AM37 °FPassing clouds.13 mph75%30.04 "HgN/A
11:50 PM
Mon, Mar 2
37 °FClear.15 mph75%30.01 "Hg10 mi
11:20 PM39 °FClear.15 mph70%30.01 "Hg10 mi
Weather by CustomWeather, © 2015

See weather overviewHow to use our weather pages